UZB57 UZTT-UZNU

Flight info

Callsign UZB57
Flight time N/A
Altitude 34000
Route N0450F340 DIBAD N193 LAPZE Y720 DIKNA
Aircraft A320/M-VGDW/C

Departure

Time 2026-04-24 17:03
Airport Tashkent International Airport (UZTT)

Arrival

Time N/A
Airport UZNU
Time Latitude Longitude Altitude Speed Heading
2026-04-24 16:22 41.25155 69.26393 1379 ft 0 kts 180°
2026-04-24 16:42 41.25159 69.26393 1377 ft 2 kts 180°
2026-04-24 16:42 41.25178 69.26394 1378 ft 3 kts 189°
2026-04-24 16:42 41.25195 69.26401 1378 ft 3 kts 227°
2026-04-24 16:43 41.25201 69.26413 1378 ft 1 kts 270°
2026-04-24 16:43 41.25201 69.26414 1378 ft 0 kts 270°
2026-04-24 16:58 41.25201 69.26369 1382 ft 8 kts 270°
2026-04-24 16:58 41.25202 69.26302 1381 ft 7 kts 270°
2026-04-24 16:58 41.25210 69.26251 1378 ft 5 kts 315°
2026-04-24 16:59 41.25238 69.26245 1380 ft 4 kts 352°
2026-04-24 16:59 41.25256 69.26233 1380 ft 2 kts 323°
2026-04-24 16:59 41.25286 69.26147 1379 ft 0 kts 292°
2026-04-24 17:00 41.25301 69.26099 1381 ft 13 kts 292°
2026-04-24 17:00 41.25392 69.26046 1378 ft 16 kts 14°
2026-04-24 17:01 41.25443 69.26182 1380 ft 0 kts 82°
2026-04-24 17:02 41.25448 69.26229 1379 ft 19 kts 81°
2026-04-24 17:02 41.25505 69.26756 1378 ft 92 kts 82°
2026-04-24 17:03 41.25794 69.29343 1698 ft 166 kts 81°
2026-04-24 17:03 41.25970 69.30895 2299 ft 174 kts 80°
2026-04-24 17:03 41.26146 69.32499 2861 ft 182 kts 81°
2026-04-24 17:04 41.26341 69.34262 3133 ft 204 kts 81°
2026-04-24 17:04 41.26718 69.38260 4013 ft 233 kts 95°
2026-04-24 17:04 41.26218 69.40386 4440 ft 252 kts 125°
2026-04-24 17:05 41.24902 69.41940 5156 ft 258 kts 155°
2026-04-24 17:05 41.23178 69.42456 5876 ft 266 kts 182°
2026-04-24 17:05 41.19895 69.40289 7413 ft 276 kts 233°
2026-04-24 17:06 41.18979 69.38051 8298 ft 277 kts 245°
2026-04-24 17:06 41.17390 69.33383 10129 ft 278 kts 245°
2026-04-24 17:06 41.16623 69.30917 10459 ft 301 kts 254°
2026-04-24 17:07 41.16436 69.29050 10605 ft 319 kts 269°
2026-04-24 17:07 41.16740 69.25021 11162 ft 338 kts 275°
2026-04-24 17:07 41.17347 69.18751 12577 ft 347 kts 275°
2026-04-24 17:08 41.17969 69.12324 13969 ft 355 kts 275°
2026-04-24 17:08 41.18277 69.09056 14597 ft 358 kts 275°
2026-04-24 17:08 41.18582 69.05751 15227 ft 362 kts 275°
2026-04-24 17:09 41.19192 68.99062 16483 ft 368 kts 275°
2026-04-24 17:09 41.19806 68.92298 17707 ft 375 kts 275°
2026-04-24 17:10 41.20120 68.88849 18318 ft 378 kts 275°
2026-04-24 17:10 41.21062 68.78335 19988 ft 386 kts 275°
2026-04-24 17:11 41.22007 68.67688 21660 ft 392 kts 275°
2026-04-24 17:12 41.23605 68.49458 24066 ft 403 kts 275°